CW4541 Weather Reports


Display with metric or nautical units.
time (UTC)temp
F
wind
direction
speed
MPH
gust
MPH
rain 1hr
in
rain 24hr
in
rain mn
in
humidity
%
barometer
mb
20260506130607 34 0 0.0 1.0 0.00 0.00 0.00 66 1019.0
20260506120607 33 0 0.0 0.0 0.00 0.00 0.00 66 1018.2
20260506120111 33 0 0.0 0.0 0.00 0.00 0.00 66 1018.1
20260506110607 36 0 0.0 2.0 0.00 0.00 0.00 62 1017.8
20260506110111 36 0 0.0 1.0 0.00 0.00 0.00 61 1017.8
20260506100606 39 0 1.0 7.0 0.00 0.00 0.00 58 1017.9
20260506100112 39 0 2.0 7.0 0.00 0.00 0.00 59 1017.8
20260506090607 39 0 0.0 7.0 0.00 0.00 0.00 58 1017.3
20260506090112 39 0 2.0 7.0 0.00 0.00 0.00 59 1017.2
20260506080606 38 0 1.0 3.0 0.00 0.00 0.00 56 1017.3
20260506080111 39 0 0.0 6.0 0.00 0.00 0.00 55 1017.4
20260506070606 40 0 1.0 5.0 0.00 0.00 0.00 52 1017.3
20260506070111 41 0 0.0 5.0 0.00 0.00 0.00 51 1017.3
20260506060607 42 0 0.0 5.0 0.00 0.00 0.00 44 1016.9
20260506050606 44 0 1.0 6.0 0.00 0.00 0.00 39 1016.9
20260506050111 44 0 1.0 6.0 0.00 0.00 0.00 38 1016.8
20260506040606 40 0 0.0 0.0 0.00 0.00 0.00 15 1016.4
20260506030606 45 0 0.0 0.0 0.00 0.00 0.00 8 1015.3
20260506030111 45 0 0.0 0.0 0.00 0.00 0.00 8 1015.2
20260506010606 57 0 4.0 9.0 0.00 0.00 0.00 1 1013.1
20260506010112 57 0 4.0 9.0 0.00 0.00 0.00 1 1013.0
20260506000606 59 0 10.0 17.0 0.00 0.00 0.00 3 1013.0
20260506000110 59 0 9.0 17.0 0.00 0.00 0.00 4 1012.8
20260505230606 62 0 2.0 10.0 0.00 0.00 0.00 4 1012.9
20260505230111 62 0 2.0 10.0 0.00 0.00 0.00 4 1012.8
20260505220606 61 0 2.0 8.0 0.00 0.00 0.00 7 1013.6
20260505220111 60 0 3.0 8.0 0.00 0.00 0.00 7 1013.7
20260505210606 63 0 2.0 12.0 0.00 0.00 0.00 7 1014.4
20260505200606 61 0 3.0 16.0 0.00 0.00 0.00 8 1014.9
20260505200111 62 0 5.0 13.0 0.00 0.00 0.00 7 1014.8
20260505190606 60 0 3.0 10.0 0.00 0.00 0.00 8 1015.6
20260505180606 59 0 3.0 14.0 0.00 0.01 0.00 10 1016.0
20260505180111 59 0 1.0 7.0 0.00 0.01 0.00 11 1016.0
20260505170606 57 0 3.0 8.0 0.00 0.01 0.00 13 1016.2
20260505160605 54 0 2.0 8.0 0.00 0.01 0.00 18 1016.6
20260505160111 53 0 1.0 8.0 0.00 0.01 0.00 18 1016.7
20260505150606 50 0 1.0 8.0 0.00 0.01 0.00 21 1016.5
20260505150111 50 0 2.0 8.0 0.00 0.01 0.00 23 1016.5
20260505140605 43 0 1.0 6.0 0.00 0.01 0.00 30 1017.4